CHANGSHAGAOXIN (TY 4-01) (43669 NORAD) Tracking and Keplerian Element Data

This shows tracking and keplerian element data for the satellite.

Feedback or suggestion? Click here.




ElementValue
Catalog43669
NameCHANGSHAGAOXIN (TY 4-01)
Epoch Orbit327
Epoch Day323.87231688
Epoch Year2018
RAAN344.5756
Inclination97.5246
Eccentricity0.0010661
Argument of Perigee183.6044
Mean Anonmoly300.0161
Mean Motion15.16416147
Decay Rate7.88E-06
L11 43669U 18083H 18323.87231688 .00000788 00000-0 44009-4 0 9992
L22 43669 97.5246 344.5756 0010661 183.6044 300.0161 15.16416147 3276

Live tracking and technical data element details for CHANGSHAGAOXIN (TY 4-01) (NORAD 43669). CHANGSHAGAOXIN (TY 4-01) can be tracked NOW for your location showing map with azimuth and elevation plus other details from your city location.

Track the satellite on the map from your city or location and see movement details for azimuth, elevation, latitude, longitude, range, height, and movement on the map or in text.







IsCatalogInMostPopularTable: catalog: 43669, numindb: 13
Update: records affected: 1



GetName: 43669 CHANGSHAGAOXIN (TY 4-01)

Hit Count: updated at: Tue, 20 Nov 2018 11:07:17 GMT